Location: St. Louis
(38.6270°N, 90.1994°W)
Time: 09:04:02
(UTC-06:00)

Vanguard 2 Rocket - Pass Details

Date: 05 December 2021
Orbit: 553 x 3325 km, 32.9° (Epoch: 23 January)

Event Time Altitude Azimuth Distance (km) Brightness Sun altitude
Rises 21:21:07 0° 272° (W) 4,076 10.8 -54.1°
Reaches altitude 10° 21:23:30 10° 267° (W) 3,386 10.2 -54.6°
Enters shadow 21:25:17 19° 261° (W) 2,938 9.7 -54.9°
Maximum altitude 21:32:08 51° 194° (SSW) 2,327 - -56.2°
Drops below altitude 10° 21:46:59 10° 125° (SE) 5,630 - -58.9°
Sets 21:52:17 0° 121° (ESE) 6,953 - -59.9°
